Voltar ao catálogo

SAC C

AtivoCiênciaSSO
NORAD 26620·PAYLOAD·🇦🇷 Argentina

Lançado Nov 21, 2000 de Vandenberg Space Force Base

Loading…

Próximas Passagens (próximas 24 horas)

TLE

AtualizadoSource: Space-Track

Época: Sep 14, 2026, 12:51 UTC

1 26620U 00075B   26257.53591762  .00000333  00000-0  74766-4 0  9991
2 26620  98.4981 272.0451 0001577  93.2602 266.8779 14.63002360373889

Acompanhe SAC C em tempo real com AllMySat

Download on the App Store